Wind_Speed
22 23 22 22 21 20 20 21 23 24 25 26 25 24 22 22 22 22 21 20 21 23 23 24 24 24 24 24 23 22 22 21 20 19 18 17 16 15 14 13 12 11 9
21 21 21 21 21 21 22 23 23 23 23 25 25 24 25 25 24 24 24 23 23 23 23 24 25 25 25 26 26 25 25 24 23 22 21 20 19 18 17 16 15 13 12
21 22 21 21 22 23 24 24 24 24 23 23 24 25 25 25 25 25 25 25 24 23 24 24 25 26 25 27 27 26 26 27 26 25 24 23 22 21 20 18 17 16 15
22 22 23 23 23 23 24 25 25 24 24 24 24 24 25 25 25 25 26 26 26 26 26 26 26 27 27 26 28 27 27 27 28 27 27 26 25 24 23 21 20 19 18
22 23 23 23 23 24 24 24 24 24 24 25 25 25 25 25 25 26 26 27 28 28 27 28 27 28 29 28 28 29 28 28 29 30 30 29 28 27 26 24 23 22 20
22 23 24 23 24 24 24 24 25 25 26 26 27 27 27 26 27 27 27 28 29 29 29 29 29 29 30 30 30 30 31 30 30 30 32 32 31 30 29 27 26 24 23
22 23 24 24 24 24 25 25 25 26 26 27 27 28 28 28 29 29 29 29 29 30 31 31 31 30 30 31 31 31 31 32 32 31 32 33 33 32 31 30 29 27 26
22 23 23 24 25 25 25 25 26 26 27 27 28 28 29 30 31 30 31 31 31 31 32 33 33 32 32 32 32 33 33 33 33 34 34 35 35 35 34 33 32 30 29
22 23 24 24 25 25 25 25 26 26 27 28 28 28 29 29 31 31 31 31 32 32 33 34 34 35 34 34 34 34 34 34 35 36 35 36 37 37 37 35 35 33 31
23 23 24 25 25 25 26 26 27 27 28 28 29 29 29 30 31 31 32 32 32 32 33 35 35 35 36 36 35 35 35 36 36 37 37 37 38 39 39 39 37 36 34
24 24 24 25 26 26 27 27 28 29 29 30 31 31 31 32 32 32 33 33 33 33 34 35 36 37 37 37 37 37 36 37 37 37 38 37 38 39 40 40 39 38 37
25 25 25 26 27 28 28 29 30 30 31 32 32 33 33 33 33 34 34 34 35 35 36 36 36 37 38 38 38 38 38 38 38 39 39 39 39 39 40 41 41 41 39
27 27 27 28 29 29 30 31 32 33 33 34 34 35 35 35 35 36 36 36 36 36 37 37 38 38 38 40 40 39 40 40 40 39 39 39 39 39 40 42 42 42 41
29 30 31 31 32 33 34 34 35 35 36 36 36 37 37 37 37 37 38 38 38 38 38 39 39 39 39 40 41 40 40 41 41 40 39 39 39 40 40 42 42 42 43
32 32 33 34 35 35 36 36 37 38 38 38 38 38 39 39 39 39 39 40 40 39 39 40 41 40 40 41 41 40 40 40 41 41 41 40 40 40 40 41 42 43 44
33 34 35 36 36 37 38 38 38 39 39 39 40 40 40 40 40 40 40 41 41 41 40 40 42 42 42 42 42 41 40 40 40 41 41 41 40 41 41 41 41 42 43
34 35 36 37 37 38 38 38 38 39 39 39 39 39 40 40 40 41 41 41 41 41 41 40 42 42 42 42 42 42 41 41 41 41 41 41 40 40 40 42 42 42 43
36 37 37 38 38 39 38 38 38 37 37 37 37 38 38 39 40 41 41 41 41 41 41 41 41 42 41 41 42 42 42 42 41 41 41 41 40 40 40 41 42 43 43
38 38 39 39 39 39 38 38 37 36 35 35 35 36 36 37 38 39 40 41 41 41 41 41 41 41 42 42 41 42 42 43 42 42 42 41 41 41 41 41 42 42 42
39 40 40 40 40 39 38 37 36 35 34 34 34 35 35 36 36 37 38 39 40 40 40 41 41 41 41 42 42 41 42 43 43 42 42 41 40 41 41 41 41 42 42
41 41 41 40 40 39 38 36 36 35 34 34 34 34 34 34 34 35 37 38 39 39 40 40 40 41 41 41 42 42 41 42 43 42 42 42 41 41 42 41 40 41 41
42 42 42 41 40 40 38 37 35 35 34 33 33 33 33 33 33 34 35 36 38 38 39 40 40 41 41 41 42 42 41 41 42 42 42 42 41 41 41 41 40 41 42
43 43 42 41 40 39 38 37 36 35 34 33 33 33 33 33 32 33 33 35 36 38 39 40 40 40 41 41 42 42 42 42 42 42 43 42 41 40 41 41 42 42 43
44 43 42 41 39 38 37 37 36 34 33 32 32 32 32 32 32 33 33 34 35 37 39 40 40 41 42 42 42 42 43 42 42 42 43 42 41 40 40 41 43 43 42
44 43 42 40 39 38 38 37 35 33 31 31 32 32 31 31 32 33 33 34 35 37 38 39 39 40 41 42 42 42 43 43 42 42 42 42 42 42 41 40 41 43 43
45 43 42 40 39 39 38 36 34 32 31 31 32 31 31 31 31 31 31 32 32 34 35 36 37 38 40 41 42 42 42 43 43 43 42 41 41 42 41 41 40 41 42
Wind_Direction
287 286 285 281 278 279 280 281 279 274 268 266 266 264 263 261 262 262 261 257 255 252 250 248 247 244 243 242 239 239 240 239 238 235 233 231 229 226 223 222 221 219 216
288 286 286 284 283 280 280 282 281 278 272 268 265 263 262 263 262 261 260 257 256 251 249 248 247 245 244 243 241 240 240 240 240 237 235 234 231 229 227 225 223 223 223
289 287 287 287 287 284 282 283 282 280 276 272 269 267 264 263 261 260 260 257 256 253 251 250 247 245 245 243 241 241 240 240 240 238 236 236 234 232 231 229 227 227 227
290 289 290 288 289 289 285 283 281 280 277 275 271 270 267 264 262 260 259 256 255 254 252 251 249 246 245 243 240 239 240 240 240 238 237 236 236 235 234 233 231 230 230
294 292 291 292 290 289 287 284 281 280 277 275 272 271 269 267 265 262 260 258 256 256 253 251 251 249 246 244 242 240 241 241 241 239 237 237 237 236 236 235 235 233 232
298 296 295 294 292 290 288 285 282 280 278 276 275 273 271 268 267 263 262 262 259 256 253 252 251 251 248 245 244 242 241 242 242 242 239 237 237 237 237 236 236 236 235
301 298 297 296 294 291 289 287 285 282 280 278 276 274 273 270 267 265 263 262 260 257 254 252 251 252 249 246 246 245 243 243 242 242 241 238 237 237 237 236 236 237 237
305 303 301 298 297 294 291 289 287 284 282 279 277 274 272 270 269 267 265 262 260 258 256 254 253 252 250 248 247 246 245 244 244 243 242 240 238 237 237 236 236 236 237
308 307 304 302 299 297 295 292 289 287 285 282 279 277 275 272 270 268 266 263 261 259 257 256 253 251 250 249 248 248 247 245 245 243 242 240 239 238 237 237 237 236 237
311 309 306 304 301 299 297 294 292 289 287 284 282 279 277 275 272 270 267 265 262 260 258 256 254 252 251 250 249 249 248 246 245 243 242 241 239 238 237 237 236 236 237
312 310 308 305 302 300 298 295 293 290 288 286 283 281 278 275 273 271 269 267 265 261 259 257 255 253 251 250 249 248 247 246 245 244 242 241 240 238 236 236 235 236 237
314 312 308 305 303 300 298 296 294 292 290 288 285 282 280 277 274 271 270 268 267 264 262 258 256 254 252 251 249 247 246 246 245 244 243 241 240 239 237 235 235 235 236
315 313 310 307 304 301 299 297 294 292 290 288 286 283 280 277 275 272 270 268 267 266 263 260 257 254 252 251 249 248 246 245 245 244 242 241 240 240 238 236 235 235 235
315 314 312 309 306 304 302 299 296 293 290 288 286 283 281 278 275 272 270 267 266 265 263 262 259 256 253 251 250 248 246 244 243 243 242 241 240 239 239 236 234 234 234
316 314 311 309 307 305 302 300 297 294 291 288 285 283 280 277 275 272 270 268 266 264 263 261 259 257 254 252 250 248 246 244 242 242 242 241 239 238 237 235 234 234 233
317 315 313 311 309 306 303 300 297 294 291 288 285 283 280 277 275 272 270 268 266 264 262 260 258 256 254 252 250 248 245 243 242 240 240 240 239 239 237 234 234 233 231
318 317 315 313 311 310 307 303 300 296 293 289 286 283 281 277 274 271 269 267 266 264 261 259 258 256 254 252 249 247 245 243 241 240 239 239 240 238 236 234 233 233 231
321 319 318 316 314 312 309 306 303 299 295 292 288 285 281 278 275 271 269 267 265 263 261 258 256 255 254 252 249 247 244 242 241 239 238 238 237 237 235 234 232 231 231
324 322 320 318 316 314 312 309 306 302 298 294 291 287 284 280 276 272 269 267 264 262 260 257 255 254 253 251 249 246 244 242 241 239 237 236 236 235 234 234 232 229 230
326 324 322 320 318 316 314 311 308 304 300 296 293 290 286 282 277 273 269 266 264 262 259 257 254 253 252 249 248 246 243 241 239 237 235 234 235 233 232 233 231 229 229
327 325 324 322 319 317 315 312 309 306 302 299 295 291 287 283 280 274 270 266 263 261 259 256 254 252 250 248 246 245 242 240 237 236 234 233 232 232 230 230 230 230 229
328 326 325 324 321 319 316 313 310 307 304 301 297 293 289 285 281 276 271 267 263 260 258 256 254 252 249 247 245 243 241 239 236 234 233 231 231 232 230 228 228 228 225
328 327 326 324 323 321 318 315 312 310 306 302 298 295 291 286 281 277 273 269 264 261 258 256 253 251 249 246 244 241 239 236 234 232 231 230 230 230 230 228 228 227 225
329 328 326 325 323 321 319 316 314 311 307 303 301 297 293 288 283 279 275 271 266 263 259 256 252 249 247 244 242 240 237 235 233 232 230 229 229 228 227 227 226 226 225
330 328 327 326 324 322 320 318 315 312 308 305 303 300 295 291 286 282 278 273 268 264 261 257 252 248 245 243 241 238 236 234 231 230 229 229 228 228 227 225 225 225 225
330 329 327 326 324 323 321 319 316 313 310 307 305 301 297 294 290 285 281 276 270 265 261 256 252 247 244 241 239 236 234 232 229 228 227 227 226 227 227 226 226 226 224
Height
5873 5872 5872 5871 5871 5871 5871 5872 5872 5872 5873 5873 5874 5874 5874 5875 5876 5877 5878 5879 5880 5882 5884 5886 5888 5890 5893 5895 5897 5900 5902 5904 5907 5909 5911 5913 5915 5916 5918 5920 5922 5924 5925
5868 5868 5868 5867 5867 5867 5867 5867 5867 5867 5867 5867 5868 5869 5870 5871 5871 5872 5873 5874 5874 5876 5879 5881 5883 5885 5888 5890 5893 5895 5898 5901 5903 5905 5908 5910 5912 5914 5916 5918 5920 5922 5924
5864 5864 5863 5863 5863 5862 5862 5861 5861 5861 5862 5862 5862 5863 5864 5865 5866 5867 5868 5869 5870 5871 5873 5876 5878 5880 5882 5885 5888 5890 5893 5896 5898 5901 5904 5906 5909 5911 5913 5915 5917 5920 5922
5860 5859 5859 5859 5858 5857 5857 5856 5856 5856 5856 5856 5856 5857 5857 5858 5860 5861 5862 5863 5865 5866 5868 5870 5872 5874 5877 5879 5882 5885 5888 5891 5893 5896 5899 5902 5905 5908 5910 5912 5915 5917 5919
5856 5855 5854 5854 5853 5852 5852 5851 5850 5850 5850 5850 5850 5850 5851 5852 5854 5855 5856 5857 5858 5860 5862 5864 5865 5868 5870 5873 5876 5879 5882 5885 5888 5891 5894 5897 5900 5903 5906 5909 5911 5914 5916
5852 5850 5849 5849 5848 5847 5846 5845 5844 5844 5844 5844 5844 5844 5845 5845 5846 5848 5849 5850 5851 5853 5855 5857 5859 5861 5863 5866 5869 5872 5875 5878 5881 5885 5888 5891 5895 5898 5901 5904 5907 5910 5913
5847 5846 5844 5843 5842 5841 5840 5839 5838 5838 5837 5837 5837 5837 5838 5838 5839 5840 5841 5843 5844 5845 5848 5850 5852 5854 5856 5859 5862 5865 5868 5871 5875 5878 5881 5885 5889 5892 5896 5899 5902 5906 5908
5842 5841 5840 5838 5836 5835 5834 5833 5832 5831 5831 5830 5830 5830 5831 5831 5831 5832 5833 5835 5836 5838 5840 5842 5844 5847 5849 5852 5855 5858 5861 5864 5867 5871 5874 5878 5882 5886 5889 5893 5897 5900 5903
5838 5836 5835 5833 5831 5829 5828 5827 5826 5825 5824 5823 5822 5823 5823 5823 5823 5824 5825 5826 5828 5830 5831 5833 5836 5839 5841 5844 5847 5850 5853 5856 5859 5863 5866 5870 5874 5878 5883 5886 5890 5894 5898
5834 5832 5830 5827 5825 5824 5822 5821 5819 5818 5817 5816 5815 5815 5815 5815 5815 5815 5816 5817 5819 5821 5822 5825 5827 5830 5833 5835 5839 5842 5844 5848 5851 5854 5858 5862 5866 5870 5875 5879 5883 5888 5891
5829 5827 5824 5822 5820 5818 5816 5814 5812 5811 5809 5808 5807 5806 5806 5806 5806 5806 5807 5808 5809 5811 5813 5815 5817 5820 5823 5826 5829 5833 5836 5839 5842 5846 5850 5853 5857 5862 5867 5871 5876 5881 5885
5824 5822 5819 5817 5814 5812 5809 5807 5805 5803 5801 5800 5798 5798 5797 5797 5797 5797 5798 5798 5799 5801 5803 5805 5808 5810 5813 5816 5820 5823 5827 5830 5834 5837 5841 5845 5849 5853 5858 5863 5868 5873 5877
5819 5816 5813 5810 5808 5805 5802 5799 5797 5795 5792 5791 5789 5788 5787 5787 5787 5787 5788 5789 5789 5791 5792 5794 5797 5800 5803 5806 5809 5813 5817 5821 5824 5828 5831 5835 5840 5844 5849 5854 5859 5864 5869
5813 5810 5806 5803 5800 5797 5794 5791 5788 5785 5783 5781 5779 5778 5777 5776 5776 5777 5777 5778 5779 5781 5782 5784 5786 5789 5792 5795 5799 5803 5807 5811 5814 5818 5822 5826 5831 5835 5840 5845 5850 5856 5861
5807 5803 5799 5796 5792 5788 5784 5781 5778 5775 5773 5770 5768 5767 5766 5765 5765 5765 5765 5766 5768 5769 5771 5773 5775 5778 5781 5784 5788 5792 5796 5800 5804 5808 5813 5817 5822 5826 5831 5836 5841 5847 5852
5800 5796 5792 5787 5783 5779 5774 5771 5767 5764 5761 5759 5757 5755 5754 5753 5753 5753 5753 5754 5755 5757 5759 5761 5763 5766 5769 5773 5777 5781 5785 5789 5794 5798 5802 5807 5812 5817 5822 5827 5832 5838 5843
5794 5789 5784 5779 5774 5769 5764 5760 5756 5753 5750 5747 5744 5743 5741 5740 5740 5740 5741 5742 5743 5744 5747 5749 5751 5754 5757 5761 5765 5769 5774 5778 5783 5787 5792 5797 5802 5807 5812 5817 5823 5828 5835
5786 5781 5775 5770 5765 5759 5754 5750 5745 5742 5738 5735 5733 5731 5729 5728 5728 5727 5728 5729 5730 5731 5734 5737 5739 5742 5745 5749 5753 5757 5762 5767 5772 5777 5782 5787 5792 5797 5803 5808 5813 5819 5825
5778 5772 5766 5761 5755 5750 5745 5740 5735 5731 5728 5725 5722 5720 5718 5716 5716 5715 5715 5716 5717 5719 5721 5724 5727 5730 5733 5737 5741 5746 5751 5756 5761 5766 5772 5777 5782 5787 5793 5798 5804 5810 5816
5771 5764 5758 5752 5746 5740 5735 5730 5725 5721 5717 5714 5711 5709 5706 5705 5704 5703 5703 5704 5705 5707 5709 5711 5715 5718 5721 5725 5729 5734 5739 5744 5750 5756 5761 5766 5772 5777 5784 5789 5795 5801 5807
5763 5756 5750 5743 5737 5731 5726 5721 5716 5711 5708 5704 5701 5698 5695 5693 5692 5691 5691 5691 5692 5694 5696 5699 5702 5706 5709 5713 5718 5722 5727 5732 5738 5745 5751 5757 5762 5768 5774 5780 5786 5792 5798
5755 5748 5741 5735 5728 5722 5716 5711 5706 5702 5698 5694 5690 5687 5685 5683 5681 5680 5679 5679 5680 5682 5684 5686 5690 5693 5697 5701 5706 5711 5716 5722 5728 5734 5740 5746 5752 5758 5764 5770 5776 5782 5789
5747 5740 5733 5726 5719 5713 5707 5702 5697 5692 5688 5684 5680 5677 5674 5672 5670 5669 5668 5667 5668 5669 5671 5674 5677 5681 5684 5689 5694 5699 5704 5710 5717 5723 5729 5736 5742 5748 5754 5760 5767 5773 5780
5739 5732 5724 5717 5711 5705 5699 5693 5688 5683 5678 5674 5670 5667 5664 5661 5659 5658 5657 5656 5656 5657 5659 5661 5665 5668 5671 5676 5681 5687 5692 5699 5706 5712 5718 5725 5732 5739 5745 5751 5757 5764 5770
5730 5723 5716 5709 5703 5696 5690 5684 5679 5674 5670 5665 5661 5657 5654 5651 5648 5646 5645 5645 5645 5645 5646 5648 5651 5655 5659 5664 5669 5675 5681 5688 5695 5701 5708 5715 5722 5729 5735 5742 5748 5755 5761
5722 5715 5708 5702 5695 5688 5682 5676 5671 5666 5662 5657 5652 5648 5645 5642 5639 5636 5634 5633 5633 5633 5633 5635 5638 5642 5646 5651 5657 5663 5670 5676 5683 5691 5698 5705 5712 5719 5726 5733 5739 5746 5752